[[{"header":{"parameterUnit":"m.s-1","parameterCategory":2,"la1":30.2991,"la2":30.254,"lo1":-89.0895,"lo2":-89.0444,"dy":0.0017,"dx":0.0017,"nx":28,"ny":28,"refTime":"2023-08-04T03:00:00:Z","depth":"0","parameterNumber":2,"parameterNumberName":"U-component_of_CURRENTS"},"data":[0,0,0,0,0,0,0,0,0,0,0,0,0,0,0,0,0,0,0,0,0,0,0,0,0,0,0,0,0,0,0,0,0,0,0,0,0,0,0,0,0,0,0,0,0,0,0,0,0,0,0,0,0,0,0,0,0,0,-0.1883,-0.1883,0,-0.1869,-0.1868,-0.1868,-0.1778,-0.1776,-0.1774,-0.1773,-0.1611,-0.1608,-0.1606,0,0,0,0,0,0,0,0,0,0,0,0,0,-0.1818,-0.182,-0.1883,-0.1883,-0.1884,-0.1869,-0.1868,-0.1868,-0.1778,-0.1776,-0.1774,-0.1772,-0.1612,-0.1609,-0.1605,0,0,0,0,0,0,0,0,0,0,0,0,0,-0.1824,-0.182,-0.1883,-0.1841,-0.1838,-0.1869,-0.1868,-0.1868,-0.1778,-0.1776,-0.1773,-0.1771,-0.1613,-0.1609,-0.1605,-0.163,0,0,-0.1592,-0.1591,0,0,0,0,0,0,0,0,-0.1824,-0.1826,-0.1847,-0.1844,-0.184,-0.1827,-0.1787,-0.1783,-0.1779,-0.1795,-0.1772,-0.177,-0.1675,-0.1666,-0.1663,-0.1623,-0.1616,-0.1592,-0.1589,-0.1588,-0.1587,0,0,0,0,0,0,0,-0.1824,-0.1826,-0.1872,-0.1848,-0.1844,-0.1819,-0.1816,-0.1786,-0.1742,-0.1793,-0.1788,-0.1796,-0.1671,-0.1667,-0.1658,-0.1613,-0.1592,-0.1588,-0.1586,-0.1584,-0.1559,-0.1561,0,0,0,0,0,0,-0.1841,-0.1827,-0.1872,-0.1872,-0.1832,-0.1823,-0.182,-0.1829,-0.1746,-0.1733,-0.1798,-0.1792,-0.1676,-0.1663,-0.1652,-0.1653,-0.1588,-0.1584,-0.1582,-0.1558,-0.156,-0.1562,0,0,0,0,0,0,-0.1839,-0.1845,-0.1873,-0.1853,-0.1855,-0.1827,-0.1839,-0.1831,-0.1815,-0.1752,-0.1735,-0.179,-0.1673,-0.1658,-0.1629,-0.1646,-0.1582,-0.1578,-0.1556,-0.1558,-0.1561,-0.1669,0,0,0,0,0,0,-0.1838,-0.1845,-0.1848,-0.1854,-0.1857,-0.1893,-0.1841,-0.1832,-0.1828,-0.1819,-0.174,-0.1723,-0.167,-0.1636,-0.1625,-0.1639,-0.1575,-0.1553,-0.1557,-0.156,-0.1664,-0.1675,-0.1686,0,0,0,0,0,-0.1835,-0.1852,-0.1849,-0.1854,-0.1866,-0.1895,-0.1894,-0.1861,-0.183,-0.1834,-0.1785,-0.1725,-0.1649,-0.1635,-0.1621,-0.1635,-0.1552,-0.1556,-0.156,-0.1659,-0.1673,-0.1685,0,0,0,0,0,0,-0.1813,-0.1846,-0.1841,-0.1862,-0.1881,-0.1881,-0.188,-0.187,-0.1838,-0.1816,-0.1748,-0.173,-0.1711,-0.1668,-0.1654,-0.164,-0.1591,-0.1592,-0.1671,-0.1683,-0.1694,-0.1691,-0.1572,0,0,0,0,0,-0.1819,-0.1841,-0.1868,-0.1883,-0.1894,-0.1891,-0.1894,-0.1882,-0.1864,-0.1847,-0.1803,-0.1754,-0.1725,-0.1698,-0.1664,-0.1659,-0.1598,-0.1661,-0.1672,-0.1681,-0.1673,-0.1654,-0.1663,-0.1575,-0.1575,-0.1575,0,0,-0.1809,-0.1834,-0.1841,-0.188,-0.1884,-0.1919,-0.1883,-0.1897,-0.1912,-0.1835,-0.1825,-0.179,-0.1734,-0.1727,-0.1714,-0.1686,-0.1665,-0.1687,-0.1695,-0.168,-0.1659,-0.1668,-0.1675,-0.1578,-0.1577,-0.1577,0,0,-0.1827,-0.183,-0.1865,-0.1894,-0.1925,-0.1928,-0.1939,-0.1951,-0.1933,-0.1942,-0.1889,-0.1871,-0.1825,-0.1796,-0.1772,-0.1828,-0.1728,-0.1815,-0.186,-0.1844,-0.185,-0.1856,-0.1744,-0.1738,-0.1816,-0.1817,-0.1817,0,-0.1816,-0.1862,-0.1877,-0.193,-0.1945,-0.194,-0.1977,-0.1979,-0.1979,-0.1963,-0.1946,-0.1897,-0.186,-0.1843,-0.1867,-0.185,-0.1792,-0.1813,-0.1858,-0.1862,-0.1865,-0.1749,-0.1742,-0.1822,-0.1822,-0.1821,-0.1821,0,-0.1869,-0.1907,-0.1928,-0.199,-0.2014,-0.2039,-0.206,-0.2066,-0.2047,-0.2039,-0.202,-0.1989,-0.195,-0.1954,-0.1926,-0.1934,-0.1864,-0.1877,-0.1822,-0.188,-0.1754,-0.1744,-0.1831,-0.1828,-0.1827,-0.1825,0,0,-0.1825,-0.1944,-0.1945,-0.1982,-0.204,-0.206,-0.2093,-0.2104,-0.2094,-0.2101,-0.2083,-0.2077,-0.2046,-0.202,-0.199,-0.1987,-0.1962,-0.1949,-0.1945,-0.1831,-0.185,-0.1609,-0.1573,-0.1989,-0.1989,-0.199,-0.1735,0,-0.1849,-0.1955,-0.2001,-0.2066,-0.2111,-0.2125,-0.2145,-0.2154,-0.2141,-0.2126,-0.2101,-0.2075,-0.2074,-0.2053,-0.2058,-0.1977,-0.1948,-0.2024,-0.1814,-0.1806,-0.1582,-0.1559,-0.1266,-0.0999,-0.1724,-0.1723,-0.1721,0,-0.1868,-0.1939,-0.2021,-0.2095,-0.2108,-0.2142,-0.2142,-0.2169,-0.2156,-0.214,-0.2128,-0.2094,-0.2066,-0.208,-0.197,-0.2014,-0.1944,-0.1891,-0.1881,-0.161,-0.1547,-0.1068,-0.0953,-0.1015,-0.1705,-0.1706,-0.1707,0,-0.1809,-0.1932,-0.1989,-0.2021,-0.2114,-0.2127,-0.2155,-0.2159,-0.2138,-0.2148,-0.2094,-0.2089,-0.2011,-0.1993,-0.1869,-0.1924,-0.172,-0.1778,-0.1483,-0.1462,-0.1142,-0.1092,-0.1054,-0.1721,-0.1721,-0.1722,-0.1723,0,-0.1797,-0.1831,-0.1969,-0.1998,-0.2024,-0.2105,-0.2101,-0.2123,-0.2116,-0.2027,-0.2088,-0.1958,-0.1992,-0.1868,-0.1834,-0.1564,-0.1678,-0.1449,-0.1385,-0.1164,-0.1121,-0.1105,-0.1282,-0.1712,-0.1714,-0.1716,-0.1718,0,-0.1695,-0.1801,-0.1864,-0.1975,-0.2002,-0.2014,-0.2056,-0.2026,-0.2045,-0.1929,-0.1916,-0.1824,-0.1604,-0.1583,-0.1465,-0.1414,-0.1228,-0.1169,-0.0851,-0.0754,-0.0531,-0.0725,-0.0668,-0.0643,-0.078,-0.0773,-0.0767,0,-0.1649,-0.1685,-0.181,-0.1818,-0.1859,-0.1904,-0.1895,-0.1972,-0.1912,-0.1769,-0.1653,-0.1454,-0.117,-0.0895,-0.0784,-0.0613,-0.0855,-0.0335,-0.0413,-0.0434,-0.0608,-0.082,-0.0825,-0.0011,0.0001,0.0011,0.0019,0,-0.1522,-0.157,-0.1603,-0.1634,-0.1651,-0.165,-0.1642,-0.1597,-0.1591,-0.1452,-0.1122,-0.0892,-0.0545,-0.015,0.0001,0.0062,-0.0336,-0.0123,-0.0253,-0.0073,-0.0197,-0.0165,-0.0238,0.0106,0.0097,0.0091,0.0086,0.0083,-0.1371,-0.1348,-0.1379,-0.1373,-0.1387,-0.1287,-0.1194,-0.1135,-0.0957,-0.0643,-0.0585,-0.0153,0.024,0.0603,0.0577,0.0692,0.0382,0.0688,0.0446,0.0229,0.0256,0.0427,0.0884,0.088,0.0877,0.0874,0.0871,0,-0.1138,-0.1109,-0.1099,-0.1047,-0.093,-0.103,-0.091,-0.0745,-0.042,-0.0198,0.0147,0.0673,0.113,0.1221,0.1464,0.1312,0.1068,0.1098,0.0819,0.0778,0.0926,0.0967,0.1595,0.1595,0.1595,0.1595,0.1595,0.1595,-0.1003,-0.0874,-0.086,-0.0577,-0.0536,-0.0301,-0.0182,0.0008,0.0188,0.063,0.0905,0.1085,0.1294,0.1581,0.1604,0.148,0.1068,0.1032,0.072,0.077,0.071,0.0652,0.0655,0.1206,0.1205,0.0768,0.0764,0.076]},{"header":{"parameterUnit":"m.s-1","parameterCategory":2,"la1":30.2991,"la2":30.254,"lo1":-89.0895,"lo2":-89.0444,"dy":0.0017,"dx":0.0017,"nx":28,"ny":28,"refTime":"2023-08-04T03:00:00:Z","depth":"0","parameterNumber":3,"parameterNumberName":"V-component_of_CURRENTS"},"data":[0,0,0,0,0,0,0,0,0,0,0,0,0,0,0,0,0,0,0,0,0,0,0,0,0,0,0,0,0,0,0,0,0,0,0,0,0,0,0,0,0,0,0,0,0,0,0,0,0,0,0,0,0,0,0,0,0,0,0.0482,0.0483,0,0.0603,0.0604,0.0606,0.0671,0.067,0.067,0.067,0.0796,0.0799,0.0803,0,0,0,0,0,0,0,0,0,0,0,0,0,0.0483,0.0482,0.0482,0.0483,0.0484,0.0602,0.0604,0.0607,0.0671,0.067,0.067,0.067,0.0794,0.0799,0.0803,0,0,0,0,0,0,0,0,0,0,0,0,0,0.0535,0.0482,0.0482,0.0528,0.0533,0.0602,0.0605,0.0607,0.0671,0.067,0.067,0.067,0.0793,0.0798,0.0803,0.0844,0,0,0.082,0.0822,0,0,0,0,0,0,0,0,0.0531,0.0535,0.052,0.0524,0.053,0.0618,0.0651,0.0685,0.0671,0.0623,0.067,0.0669,0.0734,0.0744,0.0774,0.085,0.0855,0.082,0.0824,0.0826,0.0827,0,0,0,0,0,0,0,0.0527,0.0531,0.0534,0.0521,0.0527,0.0602,0.0608,0.0659,0.0682,0.0627,0.0631,0.0638,0.0737,0.0768,0.0777,0.0857,0.082,0.0825,0.0828,0.083,0.0929,0.0928,0,0,0,0,0,0,0.0495,0.0526,0.053,0.0537,0.0525,0.0601,0.0608,0.0593,0.0682,0.0694,0.0638,0.064,0.0759,0.0771,0.0782,0.0776,0.0826,0.0831,0.0834,0.0929,0.0929,0.0928,0,0,0,0,0,0,0.0494,0.0493,0.0525,0.0533,0.0542,0.06,0.0584,0.0596,0.0621,0.0689,0.0702,0.0649,0.076,0.0774,0.0817,0.0783,0.0833,0.0838,0.093,0.0929,0.0928,0.0802,0,0,0,0,0,0,0.0493,0.0492,0.0477,0.053,0.054,0.055,0.0585,0.0598,0.0624,0.0628,0.0704,0.0715,0.076,0.0808,0.0822,0.0792,0.0842,0.0931,0.093,0.0929,0.0807,0.0797,0.0788,0,0,0,0,0,0.0493,0.0466,0.0475,0.0476,0.0514,0.0549,0.0561,0.0606,0.0624,0.0629,0.0681,0.0713,0.081,0.0813,0.0829,0.0799,0.0931,0.093,0.0929,0.0811,0.0799,0.0789,0,0,0,0,0,0,0.0455,0.0471,0.0482,0.0459,0.0494,0.0557,0.0566,0.06,0.0648,0.065,0.0717,0.0733,0.0755,0.0802,0.0803,0.0825,0.0872,0.0873,0.0777,0.0766,0.0757,0.0712,0.0847,0,0,0,0,0,0.0437,0.0419,0.0457,0.0438,0.0451,0.0509,0.0531,0.0559,0.0606,0.0627,0.0678,0.0728,0.0765,0.0784,0.0831,0.0851,0.0883,0.084,0.083,0.0822,0.0798,0.0838,0.0829,0.0923,0.0924,0.0924,0,0,0.0414,0.0422,0.0411,0.0429,0.0461,0.0457,0.0521,0.0542,0.0534,0.0633,0.0641,0.0703,0.0766,0.0782,0.0795,0.0813,0.081,0.082,0.0812,0.0793,0.0835,0.0826,0.0817,0.0923,0.0923,0.0923,0,0,0.0355,0.0368,0.0333,0.0356,0.0388,0.0422,0.0421,0.0477,0.0497,0.0528,0.0583,0.0621,0.0694,0.0717,0.0741,0.0712,0.0764,0.0729,0.0639,0.0678,0.067,0.0663,0.0675,0.067,0.0718,0.0717,0.0717,0,0.0325,0.0283,0.0332,0.0312,0.0317,0.0393,0.0364,0.0396,0.0458,0.047,0.051,0.06,0.0654,0.0655,0.0639,0.0685,0.0714,0.0673,0.0663,0.0657,0.0653,0.0667,0.0663,0.0711,0.0712,0.0713,0.0713,0,0.0243,0.0216,0.0202,0.0189,0.0208,0.02,0.0245,0.0263,0.0307,0.0348,0.0379,0.0462,0.0512,0.0531,0.0576,0.056,0.0591,0.065,0.0683,0.0635,0.0654,0.0652,0.0702,0.0704,0.0706,0.0708,0,0,0.015,0.014,0.0131,0.0118,0.0142,0.0154,0.0134,0.0151,0.0159,0.0213,0.0226,0.0274,0.0336,0.0366,0.0429,0.0452,0.0442,0.0522,0.0527,0.0517,0.0507,0.0528,0.0529,0.0505,0.0504,0.0504,0.0526,0,0.0065,-0.0011,0.0015,-0.0037,-0.0063,0.0001,-0.0013,0.0019,0.0079,0.0119,0.0181,0.024,0.0266,0.0318,0.0324,0.0451,0.0435,0.0429,0.0569,0.0572,0.0584,0.0527,0.0652,0.0683,0.0525,0.0525,0.0525,0,-0.0029,-0.0065,-0.0144,-0.014,-0.0143,-0.0154,-0.0128,-0.0121,-0.0056,-0.0004,0.0037,0.0133,0.0168,0.0226,0.0307,0.0308,0.0363,0.0439,0.0444,0.0503,0.059,0.0712,0.0687,0.0715,0.0523,0.0524,0.0524,0,-0.012,-0.0166,-0.0232,-0.0235,-0.0227,-0.0237,-0.0221,-0.0165,-0.0104,-0.0059,0.0033,0.0047,0.0156,0.0184,0.0307,0.0327,0.0411,0.0476,0.0516,0.0518,0.0669,0.0686,0.0676,0.0483,0.0483,0.0483,0.0483,0,-0.0219,-0.0262,-0.0274,-0.0306,-0.0343,-0.0305,-0.0297,-0.0273,-0.0165,-0.0043,-0.0023,0.0105,0.0166,0.0247,0.0281,0.0381,0.0379,0.0471,0.052,0.0628,0.0639,0.0709,0.0701,0.0483,0.0483,0.0483,0.0483,0,-0.0298,-0.0321,-0.0372,-0.0388,-0.0386,-0.0401,-0.0306,-0.0238,-0.0171,0.0002,0.0045,0.0188,0.0299,0.0311,0.0412,0.0417,0.0516,0.0486,0.0581,0.0638,0.0723,0.0703,0.0702,0.0784,0.0557,0.0557,0.0558,0,-0.0342,-0.039,-0.0425,-0.0419,-0.042,-0.0415,-0.0354,-0.0267,-0.0123,0.0097,0.0235,0.036,0.0511,0.057,0.0571,0.0565,0.0572,0.0656,0.0704,0.0707,0.0723,0.0686,0.0755,0.0857,0.086,0.0862,0.0864,0,-0.0399,-0.0414,-0.0443,-0.0444,-0.0398,-0.0326,-0.021,-0.0091,0.0104,0.0261,0.055,0.0672,0.0754,0.0845,0.0758,0.076,0.0724,0.0706,0.0716,0.0933,0.0891,0.1004,0.0829,0.0885,0.0883,0.0881,0.088,0.0879,-0.0402,-0.0429,-0.044,-0.0419,-0.0341,-0.0162,-0.0044,0.0143,0.0374,0.0736,0.0824,0.1063,0.1142,0.1085,0.0972,0.0942,0.0903,0.1007,0.0974,0.0928,0.1021,0.0849,0.0954,0.0952,0.0951,0.095,0.0949,0,-0.0374,-0.0388,-0.0385,-0.0297,-0.0126,-0.0116,0.0146,0.0351,0.0666,0.091,0.1183,0.1496,0.1492,0.1402,0.1336,0.1254,0.1225,0.1211,0.1221,0.1279,0.1161,0.119,0.1344,0.1344,0.1344,0.1344,0.1344,0.1344,-0.035,-0.0346,-0.034,-0.0079,0.003,0.0332,0.0513,0.0756,0.0967,0.1372,0.1612,0.1784,0.1893,0.16,0.1467,0.142,0.1436,0.1368,0.1341,0.1283,0.1262,0.1242,0.1268,0.1436,0.1436,0.1555,0.1556,0.1557]}],[{"header":{"parameterUnit":"m.s-1","parameterCategory":2,"la1":30.2991,"la2":30.254,"lo1":-89.0895,"lo2":-89.0444,"dy":0.0017,"dx":0.0017,"nx":28,"ny":28,"refTime":"2023-08-04T03:00:00:Z","depth":"2","parameterNumber":2,"parameterNumberName":"U-component_of_CURRENTS"},"data":[0,0,0,0,0,0,0,0,0,0,0,0,0,0,0,0,0,0,0,0,0,0,0,0,0,0,0,0,0,0,0,0,0,0,0,0,0,0,0,0,0,0,0,0,0,0,0,0,0,0,0,0,0,0,0,0,0,0,-0.248,-0.248,0,-0.2416,-0.2414,-0.2413,-0.2366,-0.2366,-0.2366,-0.2367,-0.2237,-0.2233,-0.223,0,0,0,0,0,0,0,0,0,0,0,0,0,-0.2459,-0.2459,-0.248,-0.248,-0.248,-0.2416,-0.2414,-0.2412,-0.2366,-0.2366,-0.2367,-0.2367,-0.2238,-0.2234,-0.2229,0,0,0,0,0,0,0,0,0,0,0,0,0,-0.2431,-0.2459,-0.248,-0.2455,-0.2453,-0.2416,-0.2414,-0.2412,-0.2366,-0.2366,-0.2367,-0.2367,-0.224,-0.2234,-0.2229,-0.2183,0,0,-0.2211,-0.2209,0,0,0,0,0,0,0,0,-0.2433,-0.2431,-0.2459,-0.2457,-0.2454,-0.2406,-0.2359,-0.2335,-0.2366,-0.239,-0.2367,-0.2367,-0.2293,-0.2283,-0.2259,-0.2177,-0.2172,-0.2211,-0.2208,-0.2205,-0.2204,0,0,0,0,0,0,0,-0.2435,-0.2433,-0.2446,-0.2459,-0.2456,-0.2412,-0.2408,-0.2354,-0.2332,-0.2388,-0.2386,-0.2392,-0.229,-0.2264,-0.2255,-0.217,-0.2211,-0.2206,-0.2203,-0.22,-0.1998,-0.1996,0,0,0,0,0,0,-0.2464,-0.2435,-0.2449,-0.2445,-0.2454,-0.2413,-0.2409,-0.2415,-0.2334,-0.2325,-0.2392,-0.239,-0.2274,-0.2262,-0.2251,-0.2183,-0.2205,-0.22,-0.2197,-0.2,-0.1997,-0.1995,0,0,0,0,0,0,-0.2464,-0.2466,-0.2451,-0.2445,-0.2441,-0.2414,-0.242,-0.2413,-0.2386,-0.2339,-0.2327,-0.2374,-0.2274,-0.2259,-0.219,-0.2178,-0.2197,-0.2192,-0.2002,-0.1999,-0.1996,-0.2054,0,0,0,0,0,0,-0.2463,-0.2466,-0.2466,-0.2447,-0.2443,-0.2421,-0.242,-0.2412,-0.2393,-0.239,-0.2319,-0.2308,-0.2273,-0.2199,-0.2184,-0.2171,-0.2188,-0.2005,-0.2001,-0.1997,-0.2055,-0.2054,-0.2052,0,0,0,0,0,-0.2463,-0.2456,-0.2467,-0.2468,-0.2449,-0.2421,-0.2413,-0.239,-0.2392,-0.2369,-0.2323,-0.231,-0.2165,-0.2193,-0.2176,-0.2161,-0.2006,-0.2002,-0.1998,-0.2055,-0.2054,-0.2052,0,0,0,0,0,0,-0.2432,-0.2451,-0.2462,-0.2459,-0.2444,-0.2416,-0.2394,-0.2389,-0.2334,-0.233,-0.2286,-0.2269,-0.2204,-0.2164,-0.2196,-0.2086,-0.2082,-0.2074,-0.2131,-0.2129,-0.2128,-0.2134,-0.2183,0,0,0,0,0,-0.2435,-0.2438,-0.2445,-0.2436,-0.2435,-0.2417,-0.2402,-0.2392,-0.2354,-0.2331,-0.2287,-0.2229,-0.2171,-0.2139,-0.2078,-0.202,-0.1977,-0.1994,-0.1993,-0.1993,-0.1982,-0.1913,-0.1906,-0.1981,-0.1981,-0.1981,0,0,-0.242,-0.2431,-0.2431,-0.2431,-0.2418,-0.2401,-0.2405,-0.2384,-0.2358,-0.2324,-0.2261,-0.2222,-0.2152,-0.2088,-0.2055,-0.2056,-0.1947,-0.1987,-0.1988,-0.1976,-0.1908,-0.1901,-0.1895,-0.1978,-0.1978,-0.1979,0,0,-0.239,-0.2405,-0.24,-0.2394,-0.2391,-0.2379,-0.2378,-0.2355,-0.2332,-0.228,-0.2248,-0.2202,-0.2111,-0.2066,-0.203,-0.198,-0.1943,-0.1958,-0.1961,-0.1896,-0.189,-0.1884,-0.1827,-0.1816,-0.196,-0.196,-0.196,0,-0.2374,-0.2374,-0.2387,-0.238,-0.2372,-0.2373,-0.2356,-0.2328,-0.2281,-0.2253,-0.2261,-0.2134,-0.2098,-0.2015,-0.2011,-0.1981,-0.1938,-0.1985,-0.1898,-0.1892,-0.1885,-0.1828,-0.1815,-0.1963,-0.1962,-0.1962,-0.1962,0,-0.2346,-0.2344,-0.2334,-0.2335,-0.2321,-0.2303,-0.2293,-0.2265,-0.2252,-0.2224,-0.215,-0.2104,-0.203,-0.2019,-0.2006,-0.1935,-0.1918,-0.1911,-0.1916,-0.1882,-0.1823,-0.1808,-0.1966,-0.1965,-0.1964,-0.1964,0,0,-0.2315,-0.2318,-0.2315,-0.2307,-0.2301,-0.2282,-0.2249,-0.2208,-0.2176,-0.2137,-0.2086,-0.202,-0.201,-0.1968,-0.1948,-0.1909,-0.1852,-0.1901,-0.1896,-0.1869,-0.1706,-0.1579,-0.1552,-0.1835,-0.1832,-0.183,-0.1688,0,-0.2288,-0.2265,-0.2279,-0.2242,-0.2223,-0.2226,-0.2189,-0.2154,-0.2126,-0.2074,-0.2034,-0.197,-0.1983,-0.196,-0.1924,-0.1862,-0.1813,-0.1891,-0.1719,-0.1714,-0.1627,-0.153,-0.1546,-0.1408,-0.1673,-0.1671,-0.1669,0,-0.2255,-0.2243,-0.221,-0.2191,-0.2185,-0.2167,-0.2119,-0.2095,-0.2037,-0.2011,-0.1961,-0.1927,-0.186,-0.1888,-0.1758,-0.1806,-0.1757,-0.1719,-0.1712,-0.156,-0.1559,-0.1479,-0.1371,-0.1644,-0.1646,-0.1648,-0.165,0,-0.2204,-0.2194,-0.2163,-0.2157,-0.2135,-0.212,-0.2113,-0.2067,-0.2026,-0.1974,-0.1932,-0.1856,-0.18,-0.1734,-0.1654,-0.1703,-0.1509,-0.156,-0.1393,-0.1385,-0.1342,-0.1332,-0.1456,-0.1456,-0.1456,-0.1457,-0.1457,0,-0.2156,-0.2137,-0.2139,-0.2116,-0.2073,-0.2087,-0.2034,-0.2021,-0.1977,-0.1902,-0.1899,-0.1814,-0.1758,-0.1647,-0.1609,-0.1422,-0.1455,-0.1354,-0.1319,-0.1359,-0.1353,-0.1518,-0.1527,-0.1451,-0.1453,-0.1454,-0.1455,0,-0.2088,-0.2102,-0.2062,-0.2046,-0.2043,-0.2013,-0.1989,-0.1946,-0.1927,-0.1837,-0.1812,-0.174,-0.1584,-0.1502,-0.1368,-0.1319,-0.1192,-0.1124,-0.1171,-0.1141,-0.1138,-0.1152,-0.0928,-0.0922,-0.0917,-0.0913,-0.0909,0,-0.205,-0.2015,-0.1995,-0.1966,-0.196,-0.1928,-0.1901,-0.1906,-0.1859,-0.1768,-0.171,-0.156,-0.1408,-0.1162,-0.1024,-0.0861,-0.0991,-0.0834,-0.0917,-0.1085,-0.1074,-0.1096,-0.1116,-0.0904,-0.09,-0.0898,-0.0895,0,-0.1941,-0.1937,-0.1899,-0.1832,-0.1809,-0.1774,-0.1746,-0.1711,-0.1693,-0.1616,-0.1479,-0.1361,-0.111,-0.0921,-0.0714,-0.0658,-0.0863,-0.0766,-0.0898,-0.1018,-0.1044,-0.104,-0.1064,-0.0871,-0.0873,-0.0875,-0.0876,-0.0877,-0.1848,-0.1789,-0.1722,-0.1656,-0.163,-0.1576,-0.151,-0.1485,-0.1391,-0.1209,-0.121,-0.0961,-0.0975,-0.0543,-0.0485,-0.0443,-0.0518,-0.0623,-0.064,-0.0658,-0.0663,-0.0676,-0.0436,-0.0436,-0.0436,-0.0436,-0.0436,0,-0.1679,-0.1618,-0.1539,-0.1442,-0.1354,-0.1395,-0.1347,-0.1249,-0.1103,-0.093,-0.0744,-0.0572,-0.0438,-0.0415,-0.0291,-0.0287,-0.0349,-0.0336,-0.0503,-0.0528,-0.0551,-0.0558,-0.03,-0.0298,-0.0296,-0.0295,0,0,-0.1571,-0.1429,-0.1376,-0.1163,-0.111,-0.0968,-0.0923,-0.0817,-0.0672,-0.0439,-0.026,-0.0142,-0.0278,-0.0183,-0.0277,-0.0254,-0.0345,-0.0224,-0.035,-0.0563,-0.0581,-0.0754,-0.0796,0,0,0,0,0]},{"header":{"parameterUnit":"m.s-1","parameterCategory":2,"la1":30.2991,"la2":30.254,"lo1":-89.0895,"lo2":-89.0444,"dy":0.0017,"dx":0.0017,"nx":28,"ny":28,"refTime":"2023-08-04T03:00:00:Z","depth":"2","parameterNumber":3,"parameterNumberName":"V-component_of_CURRENTS"},"data":[0,0,0,0,0,0,0,0,0,0,0,0,0,0,0,0,0,0,0,0,0,0,0,0,0,0,0,0,0,0,0,0,0,0,0,0,0,0,0,0,0,0,0,0,0,0,0,0,0,0,0,0,0,0,0,0,0,0,0.0199,0.0201,0,0.0321,0.0322,0.0324,0.0363,0.0363,0.0362,0.0362,0.0465,0.0468,0.0471,0,0,0,0,0,0,0,0,0,0,0,0,0,0.0066,0.0068,0.0199,0.0201,0.0202,0.0321,0.0322,0.0324,0.0363,0.0363,0.0362,0.0362,0.0464,0.0468,0.0471,0,0,0,0,0,0,0,0,0,0,0,0,0,0.0149,0.0069,0.0199,0.0237,0.0241,0.032,0.0322,0.0324,0.0363,0.0363,0.0362,0.0361,0.0463,0.0467,0.0472,0.0516,0,0,0.0487,0.0489,0,0,0,0,0,0,0,0,0.0144,0.0154,0.0229,0.0234,0.0239,0.0327,0.0313,0.0388,0.0364,0.0316,0.0362,0.0361,0.0418,0.0426,0.045,0.0521,0.0525,0.0487,0.049,0.0492,0.0493,0,0,0,0,0,0,0,0.0138,0.0149,0.0247,0.0231,0.0237,0.027,0.028,0.0328,0.0369,0.0321,0.0324,0.0339,0.042,0.0446,0.0453,0.0527,0.0487,0.0491,0.0494,0.0496,0.0645,0.0647,0,0,0,0,0,0,0.0122,0.0143,0.0243,0.025,0.019,0.0273,0.0284,0.0299,0.0369,0.0379,0.0339,0.034,0.0438,0.0447,0.0457,0.0527,0.0492,0.0496,0.0499,0.0644,0.0646,0.0647,0,0,0,0,0,0,0.0119,0.013,0.0238,0.02,0.0216,0.0275,0.0292,0.0302,0.0322,0.0383,0.0393,0.0348,0.0438,0.045,0.05,0.053,0.0499,0.0503,0.0643,0.0645,0.0646,0.0658,0,0,0,0,0,0,0.0114,0.0128,0.0127,0.0199,0.0218,0.0288,0.0293,0.0305,0.0333,0.0335,0.0395,0.0404,0.0438,0.0492,0.0505,0.0536,0.0507,0.0642,0.0644,0.0646,0.0656,0.066,0.0663,0,0,0,0,0,0.0109,0.0116,0.0127,0.0139,0.0217,0.0289,0.0302,0.0341,0.0334,0.0353,0.0387,0.0402,0.0514,0.0497,0.0511,0.0545,0.0641,0.0643,0.0646,0.0655,0.0659,0.0663,0,0,0,0,0,0,0.0059,0.0123,0.0136,0.0161,0.022,0.0296,0.0312,0.0337,0.038,0.0372,0.0419,0.0432,0.0486,0.0512,0.0492,0.0593,0.0579,0.0585,0.0582,0.0586,0.059,0.0575,0.0511,0,0,0,0,0,0.0047,0.0066,0.0139,0.0158,0.0183,0.0243,0.0272,0.0302,0.0353,0.037,0.0413,0.0457,0.051,0.0541,0.0586,0.0645,0.0643,0.0674,0.0678,0.068,0.0678,0.0749,0.0759,0.0655,0.0655,0.0655,0,0,0.003,0.0069,0.0077,0.0148,0.0189,0.0238,0.0259,0.0303,0.0345,0.0375,0.043,0.0467,0.0525,0.059,0.0618,0.0616,0.0692,0.0683,0.0685,0.0682,0.0753,0.0763,0.0772,0.0657,0.0656,0.0656,0,0,0.0016,0.0042,0.0058,0.0107,0.0173,0.0222,0.0232,0.0307,0.034,0.04,0.0432,0.049,0.0561,0.0625,0.0662,0.0712,0.0703,0.0717,0.0735,0.0805,0.0814,0.0822,0.0757,0.0759,0.0727,0.0727,0.0727,0,-0.0012,0.0027,0.0075,0.0112,0.0152,0.0212,0.025,0.0303,0.0384,0.0419,0.0412,0.0538,0.0585,0.0686,0.0701,0.0723,0.0707,0.0716,0.081,0.0818,0.0827,0.0758,0.0761,0.0728,0.0728,0.0728,0.0728,0,-0.0001,0.0031,0.0047,0.0114,0.0164,0.0206,0.0289,0.0333,0.0369,0.0426,0.0513,0.0584,0.0656,0.069,0.071,0.0801,0.0746,0.0799,0.0797,0.0838,0.0762,0.0764,0.0729,0.0729,0.0729,0.0728,0,0,-0.0081,0.0033,0.0032,0.0069,0.0168,0.0209,0.0282,0.0375,0.0413,0.0494,0.0555,0.0664,0.0688,0.073,0.0776,0.0844,0.0868,0.0837,0.0841,0.0763,0.0915,0.0878,0.0876,0.0942,0.0945,0.0947,0.0809,0,-0.0091,-0.0028,0.0041,0.0101,0.0142,0.0228,0.0291,0.0377,0.0446,0.0516,0.0613,0.0678,0.071,0.0734,0.0813,0.0857,0.0887,0.0893,0.0893,0.089,0.0852,0.0885,0.085,0.0729,0.0811,0.0811,0.0812,0,-0.0119,-0.0063,-0.001,0.01,0.0124,0.0165,0.0265,0.0335,0.0457,0.0506,0.0598,0.066,0.0752,0.0781,0.0869,0.0864,0.088,0.0913,0.0911,0.0883,0.0864,0.0719,0.073,0.0816,0.0816,0.0815,0.0815,0,-0.0219,-0.0107,-0.0068,-0.0032,0.01,0.013,0.0198,0.0315,0.0369,0.0487,0.0513,0.0647,0.0673,0.0769,0.0804,0.0842,0.0867,0.0938,0.0906,0.0897,0.0871,0.0859,0.101,0.101,0.1011,0.1011,0.1012,0,-0.0265,-0.0241,-0.0119,-0.0104,-0.0058,0.0053,0.0101,0.0188,0.0296,0.034,0.0481,0.0504,0.0681,0.0715,0.0777,0.0804,0.0837,0.0896,0.0893,0.0864,0.0853,0.0957,0.0952,0.1006,0.1007,0.1008,0.1009,0,-0.039,-0.0308,-0.0266,-0.0145,-0.0111,-0.0093,0.0023,0.0062,0.0165,0.0218,0.0245,0.0379,0.0428,0.0548,0.0658,0.0731,0.0791,0.079,0.0669,0.066,0.0766,0.0764,0.0765,0.0763,0.0762,0.0761,0.076,0,-0.0444,-0.0436,-0.0338,-0.0316,-0.0269,-0.0213,-0.0173,-0.0035,0.0008,0.0115,0.0121,0.0198,0.0221,0.033,0.0518,0.0609,0.067,0.0622,0.0755,0.076,0.0757,0.0757,0.0756,0.0666,0.0664,0.0663,0.0662,0,-0.0549,-0.0529,-0.0489,-0.0439,-0.0405,-0.0347,-0.028,-0.0272,-0.0132,-0.0114,-0.0102,-0.0082,0.0074,0.0232,0.04,0.0443,0.0627,0.0599,0.0666,0.0756,0.0664,0.0661,0.0665,0.0649,0.065,0.0651,0.0652,0.0653,-0.0645,-0.0648,-0.0594,-0.0543,-0.0499,-0.0465,-0.0448,-0.0395,-0.0376,-0.0278,-0.0272,-0.0147,0.0011,0.0322,0.0362,0.0486,0.0539,0.0599,0.0605,0.0612,0.0648,0.0564,0.0526,0.0526,0.0527,0.0527,0.0527,0,-0.0735,-0.0711,-0.068,-0.0615,-0.0585,-0.0521,-0.0487,-0.0481,-0.0496,-0.0343,-0.0303,-0.0112,0.0067,0.0263,0.0482,0.0537,0.0524,0.0499,0.053,0.054,0.055,0.0586,0.0445,0.0445,0.0445,0.0445,0,0,-0.0775,-0.0777,-0.0733,-0.0686,-0.0636,-0.06,-0.0587,-0.0599,-0.0494,-0.0399,-0.0184,0.0012,0.0207,0.035,0.0373,0.0466,0.0462,0.0407,0.0463,0.05,0.0509,0.0591,0.0657,0,0,0,0,0]}],[{"header":{"parameterUnit":"m.s-1","parameterCategory":2,"la1":30.2991,"la2":30.254,"lo1":-89.0895,"lo2":-89.0444,"dy":0.0017,"dx":0.0017,"nx":28,"ny":28,"refTime":"2023-08-04T03:00:00:Z","depth":"4","parameterNumber":2,"parameterNumberName":"U-component_of_CURRENTS"},"data":[0,0,0,0,0,0,0,0,0,0,0,0,0,0,0,0,0,0,0,0,0,0,0,0,0,0,0,0,0,0,0,0,0,0,0,0,0,0,0,0,0,0,0,0,0,0,0,0,0,0,0,0,0,0,0,0,0,0,-0.0546,-0.0547,0,-0.0634,-0.0635,-0.0636,-0.0711,-0.0711,-0.0712,-0.0713,-0.0829,-0.0832,-0.0834,0,0,0,0,0,0,0,0,0,0,0,0,0,-0.0485,-0.0486,-0.0546,-0.0547,-0.0548,-0.0634,-0.0635,-0.0636,-0.0711,-0.0712,-0.0712,-0.0713,-0.0828,-0.0831,-0.0834,0,0,0,0,0,0,0,0,0,0,0,0,0,-0.0538,-0.0486,-0.0546,-0.0594,-0.0599,-0.0633,-0.0635,-0.0637,-0.0711,-0.0712,-0.0712,-0.0713,-0.0827,-0.0831,-0.0835,-0.0839,0,0,-0.0846,-0.0848,0,0,0,0,0,0,0,0,-0.0535,-0.054,-0.0586,-0.0591,-0.0596,-0.066,-0.0656,-0.0705,-0.071,-0.067,-0.0713,-0.0714,-0.0773,-0.0782,-0.0799,-0.0845,-0.085,-0.0847,-0.0849,-0.0851,-0.0852,0,0,0,0,0,0,0,-0.0531,-0.0537,-0.0583,-0.0587,-0.0593,-0.0625,-0.0633,-0.0666,-0.0718,-0.0674,-0.0679,-0.0685,-0.0777,-0.0795,-0.0802,-0.0851,-0.0847,-0.085,-0.0852,-0.0854,-0.1016,-0.1018,0,0,0,0,0,0,-0.0513,-0.0534,-0.058,-0.0586,-0.0565,-0.0625,-0.0635,-0.0641,-0.0717,-0.0729,-0.0684,-0.0688,-0.0788,-0.0797,-0.0806,-0.091,-0.0851,-0.0854,-0.0856,-0.1014,-0.1017,-0.1019,0,0,0,0,0,0,-0.0511,-0.0516,-0.0577,-0.056,-0.057,-0.0624,-0.0631,-0.0642,-0.0685,-0.0724,-0.0737,-0.0718,-0.0789,-0.0801,-0.0866,-0.0912,-0.0856,-0.0859,-0.1012,-0.1015,-0.1018,-0.1057,0,0,0,0,0,0,-0.0509,-0.0515,-0.0513,-0.0558,-0.057,-0.0614,-0.063,-0.0643,-0.0684,-0.0691,-0.0757,-0.0767,-0.0791,-0.086,-0.087,-0.0916,-0.0862,-0.1009,-0.1013,-0.1017,-0.1053,-0.1061,-0.1068,0,0,0,0,0,-0.0506,-0.0506,-0.0512,-0.0518,-0.0565,-0.0615,-0.0625,-0.0668,-0.0685,-0.071,-0.0759,-0.0767,-0.0892,-0.0865,-0.0875,-0.0924,-0.1007,-0.1012,-0.1017,-0.105,-0.106,-0.1068,0,0,0,0,0,0,-0.0479,-0.0514,-0.0522,-0.0532,-0.0575,-0.0627,-0.0648,-0.0678,-0.0735,-0.0747,-0.0787,-0.0801,-0.0879,-0.0893,-0.0862,-0.0983,-0.0953,-0.096,-0.0975,-0.0985,-0.0992,-0.0962,-0.0865,0,0,0,0,0,-0.0468,-0.0478,-0.0521,-0.0529,-0.0551,-0.0602,-0.0626,-0.0661,-0.0713,-0.074,-0.0789,-0.0843,-0.0902,-0.0935,-0.0982,-0.104,-0.101,-0.1081,-0.1088,-0.1094,-0.1079,-0.1064,-0.1067,-0.1034,-0.1034,-0.1034,0,0,-0.0451,-0.0478,-0.0478,-0.0524,-0.056,-0.0602,-0.0622,-0.0669,-0.0712,-0.0742,-0.0819,-0.087,-0.0924,-0.0999,-0.1035,-0.1018,-0.1092,-0.11,-0.1105,-0.1086,-0.1069,-0.1071,-0.1074,-0.1037,-0.1037,-0.1036,0,0,-0.0445,-0.0458,-0.0473,-0.051,-0.0567,-0.0607,-0.0626,-0.0695,-0.0734,-0.0806,-0.0848,-0.0902,-0.1004,-0.1036,-0.1069,-0.1136,-0.1132,-0.119,-0.1204,-0.1191,-0.1192,-0.1193,-0.1165,-0.1163,-0.1193,-0.1193,-0.1193,0,-0.0431,-0.0454,-0.0486,-0.0523,-0.0556,-0.0614,-0.0653,-0.0701,-0.0784,-0.0815,-0.0838,-0.0972,-0.1007,-0.1085,-0.1127,-0.1147,-0.1151,-0.1165,-0.1196,-0.1196,-0.1196,-0.1168,-0.1165,-0.1195,-0.1195,-0.1195,-0.1195,0,-0.0442,-0.0466,-0.0485,-0.0548,-0.059,-0.0634,-0.0701,-0.0751,-0.0809,-0.0856,-0.0948,-0.0999,-0.1069,-0.1112,-0.115,-0.1199,-0.1206,-0.1204,-0.1163,-0.1201,-0.117,-0.1166,-0.1199,-0.1198,-0.1197,-0.1197,0,0,-0.0402,-0.0478,-0.0485,-0.0514,-0.0609,-0.0643,-0.0716,-0.0793,-0.0828,-0.0918,-0.0957,-0.1073,-0.11,-0.1137,-0.1188,-0.1196,-0.1202,-0.1223,-0.1221,-0.1177,-0.1187,-0.1108,-0.1096,-0.1231,-0.123,-0.123,-0.1166,0,-0.041,-0.0469,-0.0512,-0.0573,-0.0612,-0.068,-0.0738,-0.0811,-0.0876,-0.0924,-0.0983,-0.1042,-0.1113,-0.1145,-0.1174,-0.1201,-0.1196,-0.1219,-0.1173,-0.117,-0.1079,-0.1089,-0.1229,-0.1163,-0.1162,-0.1161,-0.1161,0,-0.0414,-0.0454,-0.0516,-0.0584,-0.0607,-0.0653,-0.074,-0.0801,-0.0879,-0.0923,-0.0993,-0.1032,-0.1087,-0.1108,-0.1159,-0.1192,-0.1192,-0.1196,-0.1193,-0.1095,-0.1083,-0.1118,-0.1153,-0.1154,-0.1154,-0.1155,-0.1155,0,-0.0382,-0.0453,-0.0503,-0.053,-0.0623,-0.0657,-0.0713,-0.0803,-0.0841,-0.0909,-0.0926,-0.1006,-0.1035,-0.1062,-0.1112,-0.1139,-0.1132,-0.1142,-0.1059,-0.1053,-0.1124,-0.1124,-0.1124,-0.1124,-0.1124,-0.1124,-0.1125,0,-0.0388,-0.0425,-0.0486,-0.0513,-0.0554,-0.0632,-0.0688,-0.0745,-0.0807,-0.0847,-0.0922,-0.095,-0.1033,-0.1054,-0.1082,-0.1068,-0.1101,-0.1045,-0.1027,-0.1146,-0.1149,-0.1121,-0.1122,-0.1122,-0.1122,-0.1123,-0.1123,0,-0.0381,-0.0425,-0.0456,-0.052,-0.0546,-0.0574,-0.0657,-0.0677,-0.0762,-0.0802,-0.0813,-0.0904,-0.0944,-0.099,-0.1014,-0.1012,-0.0993,-0.0969,-0.1082,-0.1075,-0.0926,-0.093,-0.0844,-0.084,-0.0838,-0.0835,-0.0833,0,-0.0399,-0.0419,-0.0441,-0.0434,-0.047,-0.0525,-0.0555,-0.0647,-0.0676,-0.0781,-0.0779,-0.0828,-0.0887,-0.0858,-0.0921,-0.0906,-0.0912,-0.0878,-0.0913,-0.0903,-0.0895,-0.0904,-0.0912,-0.0829,-0.0828,-0.0827,-0.0826,0,-0.0413,-0.0406,-0.0426,-0.0406,-0.0414,-0.0433,-0.049,-0.0504,-0.0618,-0.0672,-0.0724,-0.0739,-0.0774,-0.0812,-0.0802,-0.0806,-0.0888,-0.0848,-0.0854,-0.0886,-0.0884,-0.0881,-0.0892,-0.0816,-0.0818,-0.0819,-0.0819,0,-0.0413,-0.0401,-0.0395,-0.038,-0.0364,-0.035,-0.0393,-0.0442,-0.0491,-0.0611,-0.0628,-0.0702,-0.0774,-0.0758,-0.0758,-0.0742,-0.0734,-0.0711,-0.0725,-0.0736,-0.0734,-0.0718,-0.0566,0,0,0,0,0,-0.0405,-0.0387,-0.0365,-0.0332,-0.03,-0.0299,-0.035,-0.0402,-0.0508,-0.0512,-0.0576,-0.0606,-0.0626,-0.0666,-0.0626,-0.0692,-0.0725,-0.064,-0.0703,-0.076,-0.0772,-0.0782,0,0,0,0,0,0,-0.0396,-0.0384,-0.0364,-0.0295,-0.0256,-0.0241,-0.0266,-0.0335,-0.0365,-0.0465,-0.0483,-0.0541,-0.057,-0.0631,-0.0605,-0.061,-0.063,-0.0677,-0.0675,-0.0754,-0.0764,-0.0774,-0.0788,0,0,0,0,0]},{"header":{"parameterUnit":"m.s-1","parameterCategory":2,"la1":30.2991,"la2":30.254,"lo1":-89.0895,"lo2":-89.0444,"dy":0.0017,"dx":0.0017,"nx":28,"ny":28,"refTime":"2023-08-04T03:00:00:Z","depth":"4","parameterNumber":3,"parameterNumberName":"V-component_of_CURRENTS"},"data":[0,0,0,0,0,0,0,0,0,0,0,0,0,0,0,0,0,0,0,0,0,0,0,0,0,0,0,0,0,0,0,0,0,0,0,0,0,0,0,0,0,0,0,0,0,0,0,0,0,0,0,0,0,0,0,0,0,0,-0.0806,-0.0806,0,-0.0813,-0.0813,-0.0813,-0.083,-0.083,-0.083,-0.0831,-0.085,-0.085,-0.085,0,0,0,0,0,0,0,0,0,0,0,0,0,-0.0771,-0.0772,-0.0806,-0.0806,-0.0806,-0.0813,-0.0813,-0.0813,-0.083,-0.083,-0.0831,-0.0831,-0.085,-0.085,-0.085,0,0,0,0,0,0,0,0,0,0,0,0,0,-0.0782,-0.0772,-0.0806,-0.0816,-0.0817,-0.0813,-0.0813,-0.0813,-0.0829,-0.083,-0.0831,-0.0831,-0.0849,-0.085,-0.085,-0.0839,0,0,-0.085,-0.085,0,0,0,0,0,0,0,0,-0.0782,-0.0783,-0.0814,-0.0815,-0.0816,-0.0822,-0.0807,-0.0822,-0.0829,-0.0824,-0.0831,-0.0832,-0.0841,-0.0842,-0.0841,-0.0839,-0.084,-0.085,-0.085,-0.0851,-0.0851,0,0,0,0,0,0,0,-0.0781,-0.0783,-0.0808,-0.0814,-0.0816,-0.0808,-0.081,-0.081,-0.0829,-0.0824,-0.0826,-0.0827,-0.0842,-0.0841,-0.0842,-0.0841,-0.085,-0.0851,-0.0851,-0.0851,-0.0841,-0.0841,0,0,0,0,0,0,-0.0783,-0.0782,-0.0808,-0.0808,-0.0801,-0.0808,-0.0811,-0.0819,-0.0829,-0.0831,-0.0827,-0.0828,-0.084,-0.0841,-0.0842,-0.0868,-0.0851,-0.0851,-0.0851,-0.0841,-0.0841,-0.0841,0,0,0,0,0,0,-0.0782,-0.0785,-0.0808,-0.0796,-0.0798,-0.0808,-0.0817,-0.0819,-0.0842,-0.083,-0.0833,-0.0852,-0.0841,-0.0842,-0.0847,-0.0868,-0.0851,-0.0851,-0.0842,-0.0841,-0.0841,-0.0895,0,0,0,0,0,0,-0.0781,-0.0785,-0.08,-0.0796,-0.0799,-0.0815,-0.0816,-0.0818,-0.0841,-0.0843,-0.0852,-0.0853,-0.0841,-0.0847,-0.0847,-0.0868,-0.0851,-0.0842,-0.0842,-0.0841,-0.0894,-0.0897,-0.0899,0,0,0,0,0,-0.078,-0.0793,-0.08,-0.0804,-0.0816,-0.0815,-0.0816,-0.0824,-0.0842,-0.0849,-0.085,-0.0854,-0.0843,-0.0847,-0.0847,-0.0868,-0.0843,-0.0842,-0.0841,-0.0893,-0.0896,-0.0899,0,0,0,0,0,0,-0.0777,-0.0796,-0.0804,-0.0821,-0.0823,-0.0818,-0.083,-0.084,-0.0847,-0.0853,-0.0852,-0.0852,-0.0862,-0.0851,-0.0856,-0.0859,-0.0842,-0.0842,-0.0881,-0.0885,-0.0887,-0.0876,-0.0851,0,0,0,0,0,-0.0785,-0.0808,-0.0811,-0.0826,-0.0832,-0.0838,-0.0845,-0.0846,-0.0848,-0.0854,-0.0865,-0.0862,-0.0854,-0.086,-0.0849,-0.0858,-0.0797,-0.0867,-0.087,-0.0872,-0.086,-0.0797,-0.0792,-0.0838,-0.0838,-0.0838,0,0,-0.0787,-0.0801,-0.0813,-0.0828,-0.0834,-0.0836,-0.0844,-0.0853,-0.0854,-0.0854,-0.0873,-0.0875,-0.0856,-0.0859,-0.0863,-0.0858,-0.0819,-0.0871,-0.0874,-0.086,-0.0795,-0.0791,-0.0787,-0.0837,-0.0837,-0.0838,0,0,-0.0788,-0.0817,-0.083,-0.0834,-0.0845,-0.0848,-0.0858,-0.0868,-0.0876,-0.0882,-0.0881,-0.0891,-0.0892,-0.0881,-0.0874,-0.0881,-0.0833,-0.089,-0.0903,-0.0842,-0.0837,-0.0833,-0.0717,-0.0702,-0.0895,-0.0895,-0.0896,0,-0.0793,-0.0807,-0.0831,-0.0834,-0.0844,-0.0858,-0.0863,-0.0863,-0.0873,-0.0878,-0.089,-0.0894,-0.0893,-0.0887,-0.0892,-0.089,-0.0827,-0.0901,-0.0846,-0.084,-0.0835,-0.0717,-0.0699,-0.0898,-0.0898,-0.0897,-0.0897,0,-0.0785,-0.0806,-0.0814,-0.0832,-0.0844,-0.085,-0.0855,-0.0867,-0.0889,-0.0889,-0.0902,-0.09,-0.0902,-0.0912,-0.0907,-0.0885,-0.084,-0.0856,-0.0842,-0.0834,-0.0709,-0.069,-0.0902,-0.0901,-0.09,-0.0899,0,0,-0.0775,-0.0807,-0.0812,-0.0828,-0.0847,-0.0856,-0.0859,-0.0867,-0.0874,-0.0887,-0.0899,-0.09,-0.0918,-0.0908,-0.0918,-0.0879,-0.0788,-0.086,-0.0856,-0.0749,-0.0605,-0.0571,-0.0545,-0.0804,-0.0802,-0.08,-0.0522,0,-0.0766,-0.0786,-0.0804,-0.0825,-0.0838,-0.0855,-0.0864,-0.0869,-0.0878,-0.0888,-0.0889,-0.0899,-0.0909,-0.0927,-0.089,-0.0822,-0.0746,-0.0859,-0.0624,-0.0615,-0.0591,-0.0526,-0.0793,-0.0507,-0.0502,-0.0499,-0.0497,0,-0.0748,-0.077,-0.0796,-0.0838,-0.0848,-0.0866,-0.0894,-0.0896,-0.0895,-0.0902,-0.0907,-0.0907,-0.0869,-0.0887,-0.0725,-0.0799,-0.0696,-0.0631,-0.0619,-0.0556,-0.0547,-0.0522,-0.0461,-0.0464,-0.0467,-0.0469,-0.0471,0,-0.0735,-0.0767,-0.0801,-0.081,-0.085,-0.0874,-0.09,-0.0909,-0.0913,-0.0914,-0.0911,-0.0873,-0.0845,-0.0739,-0.06,-0.066,-0.0389,-0.0452,-0.0302,-0.0295,-0.0389,-0.0397,-0.0303,-0.0303,-0.0304,-0.0305,-0.0306,0,-0.0722,-0.0748,-0.0804,-0.0818,-0.0864,-0.0888,-0.0925,-0.0935,-0.0942,-0.0936,-0.0928,-0.0895,-0.0809,-0.0661,-0.0553,-0.0336,-0.033,-0.0265,-0.0223,-0.0412,-0.0426,-0.0372,-0.0383,-0.0294,-0.0297,-0.0299,-0.0301,0,-0.0709,-0.0742,-0.0775,-0.0831,-0.0862,-0.0893,-0.0955,-0.0961,-0.0964,-0.095,-0.0948,-0.0871,-0.0685,-0.0537,-0.0322,-0.0251,-0.0069,0.0015,-0.0122,-0.0098,-0.0024,-0.0041,0.0192,0.0196,0.0199,0.0201,0.0203,0,-0.0712,-0.0727,-0.0791,-0.082,-0.0857,-0.0913,-0.0949,-0.098,-0.0972,-0.092,-0.0896,-0.0738,-0.0665,-0.0277,-0.0173,0.0099,0.01,0.0216,0.0015,0.0009,0.0027,0.0004,-0.0017,0.0208,0.0209,0.0209,0.021,0,-0.0709,-0.0731,-0.0761,-0.0818,-0.0869,-0.0913,-0.0957,-0.0945,-0.0947,-0.095,-0.0795,-0.0652,-0.0429,-0.0234,0.0009,0.0167,0.0131,0.0246,0.0237,0.0049,0.0031,0.0041,0.0016,0.022,0.0219,0.0218,0.0217,0,-0.0713,-0.0731,-0.0771,-0.0815,-0.0868,-0.0888,-0.0916,-0.088,-0.087,-0.0801,-0.0739,-0.0549,-0.0449,-0.019,0.0017,0.0195,0.0171,0.0175,0.0169,0.0159,0.0019,-0.0018,0.023,0,0,0,0,0,-0.0713,-0.0733,-0.0769,-0.0816,-0.0853,-0.0889,-0.0908,-0.0916,-0.0907,-0.0776,-0.0752,-0.0544,-0.0269,-0.0163,0.0028,0.0011,0.0172,0.023,0.0166,0.0278,0.0266,0.0103,0,0,0,0,0,0,-0.0723,-0.0755,-0.0763,-0.0797,-0.0824,-0.0874,-0.0879,-0.0872,-0.0784,-0.0746,-0.0575,-0.0527,-0.024,-0.0362,0.0025,0.0068,0.0045,0.035,0.0353,0.0284,0.0274,0.0264,0.0093,0,0,0,0,0]}]]